Lexington Weather

Lexington, Massachusetts, USA

27°F
1/25/2021 9:29pm 
  • Lexington Conditions: Clear
  • Temperature: 27.3°F / -2.6°CColder 0.9°F than last hour.
  • Dew Point: 15.3°FIncreased 0.4°Fsince last hour.
  • Relative Humidity: 60%Increased 3.0% since last hour.
  • Wind: Wind from NNW NNW 3 mph, 10-min avg: 2 mph, gust: 5 mph
  • Barometer: 30.05 in Steady
  • Visibility: 10 miles
  • Snow Today: 0.0 in
  •   

Regional Weather Roundup
for Boston / Norton, MA

        
000
ASUS41 KBOX 241905
RWRBOX

REGIONAL WEATHER ROUNDUP
NATIONAL WEATHER SERVICE BOSTON/NORTON MA
200 PM EST SUN JAN 24 2021

NOTE:  "FAIR" INDICATES FEW OR NO CLOUDS BELOW 12,000 FEET WITH NO 
SIGNIFICANT WEATHER AND/OR OBSTRUCTIONS TO VISIBILITY.

MAZALL-242000-
EASTERN MASSACHUSETTS
  
CITY           SKY/WX    TMP DP  RH WIND       PRES   REMARKS
BOSTON         MOSUNNY   31   0  26 W26G35    29.88S WCI  17          
BEVERLY        SUNNY     31   3  30 NW24G43   29.84R WCI  17          
LAWRENCE       SUNNY     30   5  34 W18G37    29.88S WCI  18          
BEDFORD        SUNNY     30   0  27 NW24G36   29.88S WCI  16          
BLUE HILL        N/A     28   3  34 NW22G43   29.83R WCI  14          
NORWOOD        SUNNY     34   1  24 NW17G23   29.90S WCI  23          
MARSHFIELD     SUNNY     34   1  25 NW18G26   29.86S WCI  23          
PLYMOUTH       SUNNY     32   1  26 NW18G29   29.87R WCI  20          
TAUNTON        SUNNY     33   1  25 W15G24    29.88F WCI  23          
NEW BEDFORD    SUNNY     32   2  27 W15G22    29.90S WCI  22          
$$

MAZALL-242000-
CAPE COD AND THE ISLANDS
  
CITY           SKY/WX    TMP DP  RH WIND       PRES   REMARKS
FALMOUTH       SUNNY     30  -2  24 NW23G29   29.87F WCI  17          
HYANNIS        SUNNY     34   1  24 NW17G24   29.84R WCI  23          
CHATHAM        SUNNY     32   5  32 W14G31    29.83S WCI  22          
PROVINCETOWN   SUNNY     31  14  49 W26G37    29.84S WCI  17          
NANTUCKET      SUNNY     31   6  35 NW29G36   29.87S WCI  16          
MARTHAS VNYRD  SUNNY     32   4  30 NW17G31   29.89F WCI  21          
$$
 
MAZALL-242000-
CENTRAL AND WESTERN MASSACHUSETTS
  
CITY           SKY/WX    TMP DP  RH WIND       PRES   REMARKS
WORCESTER      SUNNY     25   0  33 NW18G26   29.89S WCI  11          
FITCHBURG      SUNNY     29  -1  27 NW23G36   29.93R WCI  15          
ORANGE         SUNNY     26  -1  31 NW23G31   29.97S WCI  11          
SPRINGFIELD    NOT AVBL                                               
WESTFIELD      SUNNY     27  -3  27 NW20      30.01F WCI  13          
NORTH ADAMS    SUNNY     21   0  39 W10G22    30.04F WCI  10          
PITTSFIELD     SUNNY     18  -1  43 NW17G24   30.00F WCI   3          
$$
 
RIZALL-242000-
RHODE ISLAND
  
CITY           SKY/WX    TMP DP  RH WIND       PRES   REMARKS
PROVIDENCE     MOSUNNY   30  -1  26 NW21G29   29.93F WCI  17          
NEWPORT        SUNNY     30   3  31 NW18G25   29.92F WCI  18          
BLOCK ISLAND   SUNNY     30   6  36 NW21G32   29.98S WCI  17          
SMITHFIELD     SUNNY     29   3  33 NW17G24   29.91F WCI  17          
WESTERLY       SUNNY     29  -2  26 NW13G22   29.98F WCI  19          
$$
 
CTZALL-242000-
CONNECTICUT
  
CITY           SKY/WX    TMP DP  RH WIND       PRES   REMARKS
BRADLEY INTL   MOSUNNY   28  -5  23 NW17      30.03S WCI  16          
HARTFORD       SUNNY     30  -4  23 NW21G35   30.05S WCI  17          
BRIDGEPORT     SUNNY     32   1  26 N15G22    30.08S WCI  22          
DANBURY        SUNNY     30   1  29 N16G24    30.06F WCI  19          
GROTON         SUNNY     31  -3  23 NW22G31   30.00F WCI  18          
NEW HAVEN      SUNNY     32   2  27 NW16G23   30.06F WCI  21          
CHESTER        FAIR      30  -4  22 W12G18    30.00S WCI  21          
MERIDEN        FLURRIES  28  -1  28 NW18G28   30.06S WCI  15          
WILLIMANTIC    SUNNY     28  -2  27 W14G24    30.00F WCI  17          
OXFORD         SUNNY     26   2  35 NW10G24   30.03F WCI  16          
$$

MEZ002-015-021-024-NHZ003-005-008-011-012-014-VTZ005-008-242000-
NORTHERN NEW ENGLAND
  
CITY           SKY/WX    TMP DP  RH WIND       PRES   REMARKS
PORTLAND ME    SUNNY     31  11  43 NW14G33   29.78R WCI  21          
BANGOR ME      MOSUNNY   22   4  46 NW17G29   29.69R WCI   8          
CONCORD NH     SUNNY     27   4  37 NW20G29   29.90R WCI  13          
MANCHESTER NH  MOSUNNY   29   3  33 NW21G32   29.89R WCI  16          
NASHUA NH      SUNNY     28   3  34 W20G26    29.92R WCI  15          
PORTSMOUTH NH  NOT AVBL                                               
JAFFREY NH     SUNNY     24  -1  33 NW13G22   29.89F WCI  12          
KEENE NH       SUNNY     25   1  35 NW14G25   29.97S WCI  13          
BURLINGTON VT  MOSUNNY   19   2  47 N10       30.08S WCI   7          
MT. WASHINGTON BLWGSNOW   3  -9  55 NW83G99     N/A  VSB 1/16WCI -32  
$$

NYZ052-076-242000-
EASTERN NEW YORK
  
CITY           SKY/WX    TMP DP  RH WIND       PRES   REMARKS
ALBANY         MOSUNNY   19   1  45 W16G26    30.12F WCI   4          
NEW YORK CITY  PTSUNNY   32   6  33 NW18G24   30.12S WCI  20          
$$
 
ANZALL-242000-
MARINE OBSERVATIONS
  
STATION/POSITION TIME  TEMP    WIND        PRES    VSBY  WAVE
                       AIR SEA DIR/SP/G                  HT/PER
                 (UTC) (F)     (DEG/KT/KT) (MB)    (MI)  (FT/S)
BOSTON BUOY      1850   31 42  280/ 21/ 27 1011.9R         5/ 5
BUZZARDS BAY     1800          300/ 28/ 32 1014.3F
NANTUCKET SOUND  1850      38  290/ 23/ 27   N/A           3/ 4
MASS BAY-STELLWA 1804   30     300/ 25/ 31 1009.1F  1 3/4  4/ 4
ISLE OF SHOALS   1800   27     290/ 29/ 34 1008.2F
S OF BLOCK IS    1826      47                N/A           8/ 7
$$

......................KEY.........................
  SKY/WX - SKY CONDITION/PRESENT WEATHER
  TMP    - TEMPERATURE IN FAHRENHEIT
  DWPT   - DEWPOINT IN FAHRENHEIT
  RH     - RELATIVE HUMIDITY IN PERCENT
  WIND   - DIRECTION AND SPEED IN MPH
  PRES   - MEAN SEA LEVEL PRESSURE IN INCHES OF HG
  WCI    - WIND CHILL INDEX
  VSB    - VISIBILITY IN MILES
  HX     - HEAT INDEX
  TC     - TEMPERATURE IN CELSIUS
  VRB    - VARIABLE WIND DIRECTION
  N/A    - NOT AVAILABLE
  
      

Other recent Regional Weather Roundups

Mon Jan 25, 9:05pm

Mon Jan 25, 8:04pm

Mon Jan 25, 7:04pm

Mon Jan 25, 6:05pm

Mon Jan 25, 5:04pm

Mon Jan 25, 4:04pm

Mon Jan 25, 3:04pm

Mon Jan 25, 2:05pm

Mon Jan 25, 1:04pm

Mon Jan 25, 12:05pm

Mon Jan 25, 11:04am

Mon Jan 25, 10:04am

Mon Jan 25, 9:04am

Mon Jan 25, 8:05am

Mon Jan 25, 6:04am

Mon Jan 25, 5:04am

Mon Jan 25, 4:04am

Mon Jan 25, 3:04am

Mon Jan 25, 2:04am

Mon Jan 25, 1:04am

Sun Jan 24, 11:04pm

Sun Jan 24, 10:04pm

Sun Jan 24, 9:04pm

Sun Jan 24, 6:04pm

Sun Jan 24, 5:04pm

Sun Jan 24, 4:05pm

Sun Jan 24, 3:05pm

Sun Jan 24, 1:04pm

Sun Jan 24, 12:04pm

Sun Jan 24, 11:04am

Sun Jan 24, 10:04am

Sun Jan 24, 9:04am

Sun Jan 24, 8:04am

Sun Jan 24, 7:04am

Sun Jan 24, 6:04am

Sun Jan 24, 5:04am

Sun Jan 24, 4:04am

Sun Jan 24, 3:04am

Sun Jan 24, 2:04am

Sun Jan 24, 1:04am

Sun Jan 24, 12:04am

Sat Jan 23, 11:04pm

Sat Jan 23, 10:04pm

Sat Jan 23, 9:04pm

Sat Jan 23, 8:04pm

Sat Jan 23, 7:04pm

Sat Jan 23, 6:04pm

Sat Jan 23, 5:04pm

Sat Jan 23, 4:05pm

Sat Jan 23, 3:05pm

Sat Jan 23, 2:05pm

Sat Jan 23, 12:04pm

Sat Jan 23, 11:04am

Sat Jan 23, 10:04am

Sat Jan 23, 9:04am

Sat Jan 23, 8:04am

Sat Jan 23, 7:04am

Sat Jan 23, 6:04am

Sat Jan 23, 5:04am

Sat Jan 23, 4:04am

Meta data:

ID: 061701a2-a0d9-4266-97fb-a6ed707f83f2
Link: https://api.weather.gov/products/061701a2-a0d9-4266-97fb-a6ed707f83f2